カタログに戻る

ARIANE 44L+ DEB

運用中GTO
NORAD 23239·DEBRIS·🇫🇷 France

打ち上げ Apr 15, 1992 から Guiana Space Centre

Loading…

TLE

経年Source: Space-Track

元期: Sep 14, 2026, 11:01 UTC

1 23239U 92021J   26257.45968465 -.00000068  00000-0  00000-0 0  9997
2 23239   3.8159  58.2396 6983363   9.0910 305.9153  2.23772532271017

AllMySatでARIANE 44L+ DEBをリアルタイム追跡

Download on the App Store